Regional Weather Roundup
Issued by NWS

Home | Current Version | Previous Version | Text Only | Print | Product List | Glossary On
Versions: 1 2 3 4 5 6 7 8 9 10 11 12 13 14 15 16 17 18 19 20 21 22 23 24 25 26 27 28 29 30 31 32 33 34 35 36 37 38 39 40 41 42 43 44 45 46 47 48 49 50
000
ASUS44 KFWD 271715
RWRTX
NORTH TEXAS HOURLY WEATHER ROUNDUP
NATIONAL WEATHER SERVICE FORT WORTH TX
1200 PM CDT SAT MAY 27 2017

NOTE: "FAIR" INDICATES FEW OR NO CLOUDS BELOW 12,000 FEET WITH NO
SIGNIFICANT WEATHER AND/OR OBSTRUCTIONS TO VISIBILITY.

TXZ118-119-271800-
DALLAS/FORT WORTH METROPLEX

CITY           SKY/WX    TMP DP  RH WIND       PRES   REMARKS
DFW AIRPORT    PTSUNNY   90  75  61 SW20      29.83S HX 100
DALLAS LOVE    CLOUDY    87  74  64 SW15G21   29.85R HX  95
FTW MEACHAM    CLOUDY    92  76  59 S20G26    29.84R HX 104
DAL-EXECUTIVE  PTSUNNY   86  75  69 S9G22     29.85S HX  95
FTW-ALLIANCE   PTSUNNY   90  76  63 S12G21    29.83F HX 101
FTW-NAS-JRB    CLOUDY    91  75  59 S16       29.84F HX 101
FTW-SPINKS     PTSUNNY   88  73  62 S17G26    29.87R HX  96
ARLINGTON      CLOUDY    86  73  65 S12G22    29.85S HX  93
GRAND PRAIRIE  PTSUNNY   84  72  65 S15G21    29.87R
ADDISON        PTSUNNY   86  73  66 S14G25    29.86S HX  93
MESQUITE       CLOUDY    84  73  70 S18       29.87R FOG     HX  91
LANCASTER      CLOUDY    84  74  72 S17G23    29.87S HX  92
$$

TXZ091>094-102>105-117-120-121-131>134-271800-
NORTH CENTRAL TEXAS

CITY           SKY/WX    TMP DP  RH WIND       PRES   REMARKS
SHRMAN/DENISON PTSUNNY   86  74  68 S15G21    29.86S HX  94
GAINESVILLE    CLOUDY    88  75  66 S14       29.85S HX  97
BOWIE          PTSUNNY   90  76  62 S14G20    29.83S HX 101
BRIDGEPORT     PTSUNNY   90  72  55 S14G22    29.85R HX  97
DECATUR        MOSUNNY   89  74  61 S14G21    29.84S HX  99
DENTON         CLOUDY    88  76  67 S12       29.83F HX  99
MCKINNEY       CLOUDY    86  76  71 S12G22    29.85S HX  96
BONHAM         CLOUDY    82  73  74 S18       29.87S
GREENVILLE       N/A     88  73  62 S17G24    29.88S HX  96
ROCKWALL       CLOUDY    84  75  74 SW18G30   29.87R HX  93
TERRELL        CLOUDY    82  74  76 S10       29.88R HAZE
WAXAHACHIE     CLOUDY    83  75  76 S16G22    29.88R HAZE    HX  91
CLEBURNE       CLOUDY    82  79  89 S16       29.89R HX  93
GRANBURY       CLOUDY    91  74  57 S15       29.86S HX  99
$$

TXZ083>090-098>101-113>116-127>130-139>142-154-155-271800-
WESTERN NORTH TEXAS

CITY           SKY/WX    TMP DP  RH WIND       PRES   REMARKS
WICHITA FALLS  SUNNY     91  72  53 SW16G26   29.78R HX  98
WF-KICKAPOO    SUNNY     90  73  58 SW12G20   29.81S HX  98
VERNON         SUNNY     93  48  21 S8        29.78F
ABILENE        SUNNY     88  72  58 SW20G25   29.87F HX  94
ABILENE-DYESS  MOSUNNY   89  72  57 S15G22    29.85S HX  96
GRAHAM         SUNNY     92  73  53 SW15      29.81S HX 101
BRECKENRIDGE   MOSUNNY   92  71  49 SW17G23   29.84S HAZE    HX  99
CISCO          SUNNY     88  73  62 SW17      29.87S HX  96
EASTLAND       MOSUNNY   88  73  61 S16G25    29.86F HX  96
RANGER         SUNNY     87  73  63 SW14G22   29.88S HX  94
MINERAL WELLS  MOSUNNY   90  73  57 SW13      29.83S HX  98
STEPHENVILLE   CLOUDY    86  73  64 SW13G21   29.91R HX  92
COMANCHE       CLOUDY    85  76  73 SW15G21   29.89S HX  95
BROWNWOOD      CLOUDY    86  75  70 S13G18    29.89S HX  95
COLEMAN        CLOUDY    89  71  55 SW10G18   29.89S HX  94
$$

TXZ143>147-156>162-174-175-271800-
CENTRAL TEXAS

CITY           SKY/WX    TMP DP  RH WIND       PRES   REMARKS
WACO           CLOUDY    85  74  69 S16       29.88S HAZE    HX  92
WACO-TSTC      CLOUDY    86  73  66 S20G25    29.89R HAZE    HX  93
WACO-MCGREGOR  PTSUNNY   84  74  71 S15G24    29.89S HX  91
HILLSBORO      CLOUDY    83  76  77 S18       29.88S HAZE    HX  91
CORSICANA      CLOUDY    84  76  76 S12       29.89F HAZE    HX  93
MEXIA          CLOUDY    83  75  75 S12G21    29.89S HX  91
HEARNE         CLOUDY    86  76  74 S9        29.92S HX  96
CAMERON        CLOUDY    85  75  74 S13G20    29.90S HAZE    HX  93
TEMPLE         PTSUNNY   83  75  77 S16       29.90S HAZE    HX  90
KILLEEN        CLOUDY    80  74  84 SE12      29.90R
KILLEEN-SKYLRK CLOUDY    82  75  79 S12       29.91R HAZE
FORT HOOD      CLOUDY    79  73  82 S12       29.88R
HAMILTON       CLOUDY    82  77  85 SW13      29.92R HX  91
$$

TXZ095>097-106>112-122>126-135>138-148>153-164>167-271800-
EAST TEXAS

CITY           SKY/WX    TMP DP  RH WIND       PRES   REMARKS
PARIS          CLOUDY    82  73  74 SW13G18   29.89S
SULPHUR SPRNGS CLOUDY    85  74  69 SW13G18   29.90R HX  92
MOUNT PLEASANT PTSUNNY   85  74  69 S9        29.90S HX  91
GILMER         CLOUDY    83  74  76 S15G22    29.90F
MINEOLA        CLOUDY    82  75  78 S10G18    29.89S
TYLER          CLOUDY    85  77  77 S14G23    29.90F HX  95
LONGVIEW       PTSUNNY   87  78  74 S14       29.90F HX 100
MARSHALL       PTSUNNY   85  76  74 SW10G16   29.94S HX  94
ATHENS         CLOUDY    81  77  89 S6        29.89S FOG
PALESTINE      CLOUDY    85  76  76 S10       29.92S HAZE    HX  94
JACKSONVILLE   CLOUDY    82  75  79 S12G17    29.95S
HENDERSON      CLOUDY    83  74  74 S7        29.94S HX  90
CENTER         PTSUNNY   88  77  70 S10G16    29.96R HX 100
NACOGDOCHES    PTSUNNY   84  75  74 S15G21    29.92S HX  92
LUFKIN         PTSUNNY   86  74  67 S10       29.94S HX  94
$$

SUPPLEMENTAL OBSERVATIONS (NWS FORT WORTH AREA)

CITY           SKY/WX    TMP DP  RH WIND       PRES   REMARKS
DENISON DAM      N/A     84  73  70 S8          N/A  HX  91
CADDO GRASSLND   N/A     84  73  70 S9          N/A  HX  91
PAT MAYSE LAKE   N/A     81  77  89 SE16        N/A
GREENVILLE       N/A     84  75  74 S9G17       N/A  HX  92
CEDAR HILL       N/A     84  73  70 S8G18       N/A  HX  91
LBJ GRASSLAND    N/A     91  75  59 S9G18       N/A  HX 102
POSSUM KINGDOM   N/A     93  73  52 SW12        N/A  HX 102
GRANBURY         N/A     90  73  58 S18G26      N/A  HX  98
MCGREGOR         N/A     84  73  70 SW8G21      N/A  HX  91
TEMPLE           N/A     82  75  78 S14         N/A
ATHENS           N/A     81  73  78 S8G17       N/A
$$

SUPPLEMENTAL OBSERVATIONS (NWS NORMAN AREA)

CITY           SKY/WX    TMP DP  RH WIND       PRES   REMARKS
GOODLETT         N/A     95  37  13 W10       29.79S HX  90
ODELL            N/A     95  45  17 W3        29.79F HX  91
CROWELL          N/A     94  57  28 S9        29.79F HX  93
KNOX CITY        N/A     94  54  26 SW10      29.81S HX  92
SEYMOUR          N/A     94  64  37 SW14      29.80F HX  95
$$

SUPPLEMENTAL OBSERVATIONS (NWS SAN ANGELO AREA)

CITY           SKY/WX    TMP DP  RH WIND       PRES   REMARKS
WEINERT          N/A     95  68  40 S15       29.82S HX  99
HASKELL          N/A     91  63  38 S15       29.82F HX  92
THROCKMORTON     N/A     91  73  55 S8        29.84F HX  99
STAMFORD         N/A     91  69  47 SW13      29.84F HX  95
CLYDE            N/A     87  74  64 S13       29.90S HX  95
HAMBY            N/A     90  72  55 SW16G25     N/A  HX  96
IVIE RESERVOIR   N/A     91  73  55 S12         N/A  HX 100
COLORADO BEND    N/A     81  73  78 SW6G17      N/A
$$

SUPPLEMENTAL OBSERVATIONS (NWS SHREVEPORT AREA)

CITY           SKY/WX    TMP DP  RH WIND       PRES   REMARKS
LUFKIN           N/A     88  73  62 MISG        N/A  HX  96
N SABINE NF      N/A     88  75  66 MISG        N/A  HX  97
$$

SUPPLEMENTAL OBSERVATIONS ARE A COLLECTION OF AUTOMATED INSTRUMENTS
THAT ARE MAINTAINED BY A VARIETY OF FEDERAL AND STATE AGENCIES.
CERTAIN ELEMENTS...SUCH AS HUMIDITY VALUES AND SUSTAINED WIND
SPEEDS...MAY BE APPROXIMATED.





USA.gov is the U.S. government's official web portal to all federal, state and local government web resources and services.